STARLINK-1228 (45188 NORAD) Tracking and Keplerian Element Data

This shows tracking and keplerian element data for the satellite.

Feedback or suggestion? Click here.




ElementValue
Catalog45188
NameSTARLINK-1228
Epoch Orbit658
Epoch Day88.25001157
Epoch Year2020
RAAN68.5403
Inclination52.9991
Eccentricity0.0003503
Argument of Perigee276.2258
Mean Anonmoly278.3667
Mean Motion15.76591293
Decay Rate0.00051857
L11 45188U 20012L 20088.25001157 .00051857 00000-0 32071-3 0 9992
L22 45188 52.9991 68.5403 0003503 276.2258 278.3667 15.76591293 6588

Live tracking and technical data element details for STARLINK-1228 (NORAD 45188). STARLINK-1228 can be tracked NOW for your location showing map with azimuth and elevation plus other details from your city location.

Track the satellite on the map from your city or location and see movement details for azimuth, elevation, latitude, longitude, range, height, and movement on the map or in text.







IsCatalogInMostPopularTable: catalog: 45188, numindb: 7
Update: records affected: 1



GetName: 45188 STARLINK-1228

Hit Count: updated at: Tue, 31 Mar 2020 12:32:23 GMT